Weather Service Report


876 
ASUS45 KSLC 030010
RWRUT 

UTAH REGIONAL WEATHER ROUNDUP
NATIONAL WEATHER SERVICE SALT LAKE CITY UT
600 PM MDT THU JUL 02 2015

UTZ001>011-023>025-030100-

NORTHERN UTAH
  
CITY           SKY/WX    TMP DP  RH WIND       PRES   REMARKS
BRIGHAM CITY   MOSUNNY   96  34  11 CALM      29.98F HX  91           
HILL AFB       SUNNY     94  44  18 W5        30.04F HX  90           
LOGAN          SUNNY     95  44  17 SW7       30.00F HX  91           
OGDEN          SUNNY     95  42  16 W5        30.00F HX  91           
PROVO AIRPORT  MOSUNNY   93  39  15 NW9       30.01F                  
SALT LAKE CITY MOSUNNY   97  38  13 N9        29.98F HX  92           
VERNAL         MOSUNNY   93  40  15 VRB3      30.02F                  
WENDOVER       CLOUDY    95  46  18 SW16      29.99F HX  91           
HEBER CITY     MOSUNNY   93  30  10 W8        30.09S                  
WEST JORDAN    SUNNY     93  34  12 NW7       30.03F                  

$$

UTZ012>022-026-027-030100-

SOUTHERN/CENTRAL UTAH
  
CITY           SKY/WX    TMP DP  RH WIND       PRES   REMARKS
BLANDING       PTSUNNY   90  47  22 CALM      30.13F                  
BRYCE CANYON   LGT RAIN  66  53  63 W15       30.33F                  
CEDAR CITY     CLOUDY    78  46  32 SE23G31   30.13F                  
DELTA          SUNNY     99  35  11 N14G22    29.99S HX  93           
HANKSVILLE     SUNNY    100  32   9 N7G17     29.96S HX  94           
MILFORD        LGT RAIN  88  50  27 SW15G30   30.04R                  
MOAB/CYNLANDS  SUNNY     97  45  16 E5        29.93F HX  93           
PRICE          CLOUDY    96  39  13 NW13G18   30.07F HX  91           
ST GEORGE      PTCLDY   100  55  22 SW12      29.89F HX  99           

$$

REGIONAL REPORTS     COLORADO/ARIZONA
  
CITY           SKY/WX    TMP DP  RH WIND       PRES   REMARKS
CRAIG, CO      SUNNY     89  38  16 NE6       30.12F                  
GRAND JUNCTION PTSUNNY   94  46  19 W8        29.97F HX  90           
RIFLE          MOSUNNY   94  39  14 N9G22     30.03F HX  90           
MONTROSE       PTSUNNY   90  46  21 NW5       30.07F                  
CORTEZ         SUNNY     80  54  40 E14       30.09R                  
PAGE, AZ       PTSUNNY   96  50  20 NW15G24   29.96F HX  93           
GRAND CANYON   PTSUNNY   84  48  28 SW7       30.19F                  
KINGMAN        SUNNY     98  49  18 SW14      29.96F HX  95           
FLAGSTAFF      CLOUDY    73  53  49 NW8       30.24S                  

$$

REGIONAL REPORTS    NEVADA/IDAHO/WYOMING
  
CITY           SKY/WX    TMP DP  RH WIND       PRES   REMARKS
LAS VEGAS, NV  MOSUNNY  104  54  19 S8        29.78F HX 102           
ELY            PTSUNNY   81  47  30 N17G31    30.21S                  
ELKO           CLOUDY    84  47  27 SE17      30.10F                  
POCATELLO, ID  SUNNY     95  40  14 SW7       30.02F HX  91           
BURLEY         SUNNY     92  53  26 W7        29.98F                  
EVANSTON, WY   MOSUNNY   87  40  19 W10       30.22F                  
ROCK SPRINGS   MOSUNNY   80  47  31 NE22G30   30.17S                  
KEMMERER       SUNNY     86  32  14 NW14G22   30.23F                  

$$

Return to Home page


Western Regional Climate Center, wrcc@dri.edu